Aérodrome :
LOGIN :

S'inscrire | Disclaimer

   EN    FR    IT 

 










Légende :    VFR   VFR Marginal   IFR   IFR Intensif   IFR Très Intensif
Visi : 
Plafond : 
>= 8 km
>= 3000ft
5 à 8 km
1000 à 3000 ft
1500m à 5 km
500 à 1000 ft
800 à 1500m
200 à 500 ft
< 800m
< 200 ft
Symboles :   Orages  Brouillard  Fortes neiges  Fortes précipitations  Vent > 20 kt
SIGMETs :   Divers  Orages  Givrage  Turbulence  Onde Orograph.  Cendres Volcan.







- Altitude de l'aérodrome : 17 ft
- Code IATA : MPL
- Voir les cartes d'approche


LFMT - Montpellier Méditerranée

DERNIER METAR :
  • 221400Z AUTO 14005KT CAVOK 07/M01 Q1007 NOSIG

METARs EXPIRÉS :
  • 221330Z AUTO 13004KT CAVOK 06/M02 Q1007 NOSIG
  • 221300Z AUTO VRB02KT CAVOK 08/M04 Q1008 NOSIG
  • 221230Z AUTO VRB02KT CAVOK 08/M04 Q1008 NOSIG
  • 221200Z AUTO VRB03KT CAVOK 06/M04 Q1009 NOSIG
  • 221130Z AUTO VRB03KT CAVOK 07/M03 Q1010 NOSIG

TAF TAF LFMT
Valide du 22 à 09h jusqu'au 23 à 09h UTC


220800Z 2209/2309 31006KT CAVOK
PROB30
TEMPO 2218/2222 -RA BKN014
ATIS : +33 4 67 13 11 70
Pas de NOTAMs connus pour ce terrain.



MET'MAP, la Météo Aéronautique d'un coup d'oeil ! - Copyright ORBIFLY Décembre 2007 - Disclaimer

ORBIFLY MET'MAP TEAM :

Programmation & Développement : Alexandra Zaïnal
Conception & Développement : Baudouin d'Aumeries
Co-Programmation & Développement : Marc-Olivier Méhu
Soutien technique & logistique : Manuel Goepfert

Contact : metmap@orbifly.com




SOURCES & CREDITS :

   NOAA